Flag for Canada Weather past 2 weeks in Coral Harbour, Nunavut, Canada

Now
50 °F

Partly sunny.


Feels Like: 48 °F
Forecast: N/A
Wind: 6 mph from North

Location: Coral Harbour

Current Time: Jul 3, 2015 at 5:05:43 PM

Latest Report: Jul 3, 2015 at 4:00 PM


Visibility: 15 mi

Pressure: 29.91 "Hg

Humidity: 58%

Dew point: 36 °F

Location of Coral HarbourLocation

Historic Weather in Coral Harbour — Graph

°F

Coral Harbour temperature yesterday

Maximum temperature yesterday: 43 °F (at 2:00 PM)
Minimum temperature yesterday: 36 °F (at 12:00 AM)
Average temperature yesterday: 38 °F

Past Weeks' High & Low Weather Summary

 TemperatureHumidityPressure
High52 °F (Jul 3, 2:00 PM)100% (Jun 19, 1:54 AM)29.91 "Hg (Jun 19, 1:54 AM)
Low28 °F (Jun 19, 1:54 AM)54% (Jul 3, 12:00 PM)29.35 "Hg (Jun 21, 12:00 AM)
Average38 °F86%29.67 "Hg
* Reported Jun 18 4:00 PM — Jul 3 4:00 PM, Coral Harbour, Weather by CustomWeather, © 2015

Note: Actual official high and low records may vary slightly from our data, if they occured in-between our weather recording intervals... More about our weather records

Advertising

Coral Harbour weather history for previous 24 hours

 ConditionsComfort  
Time TempWeatherWind HumidityBarometerVisibility
4:00 PM
Fri, Jul 3
50 °FPartly sunny.6 mph58%29.91 "Hg15 mi
3:00 PM50 °FPartly sunny.12 mph58%29.91 "Hg15 mi
2:00 PM52 °FPartly sunny.12 mph54%29.89 "Hg15 mi
1:00 PM50 °FPartly sunny.12 mph58%29.88 "Hg15 mi
12:00 PM48 °FPartly sunny.6 mph54%29.88 "Hg15 mi
11:00 AM48 °FPartly sunny.12 mph62%29.88 "Hg15 mi
10:00 AM46 °FPartly sunny.6 mph66%N/A15 mi
9:00 AM45 °FScattered clouds.12 mph71%29.86 "Hg15 mi
8:00 AM43 °FPassing clouds.12 mph71%29.85 "Hg15 mi
7:00 AM41 °FPassing clouds.12 mph81%29.85 "Hg15 mi
6:00 AM37 °FPassing clouds.12 mph87%29.84 "Hg15 mi
5:00 AM36 °FPassing clouds.6 mph93%29.83 "Hg15 mi
4:00 AM34 °FPassing clouds.6 mph93%29.81 "Hg15 mi
3:00 AM34 °FPassing clouds.6 mph93%29.80 "Hg15 mi
2:00 AM36 °FPassing clouds.6 mph93%29.78 "Hg15 mi
1:00 AM37 °FLight rain. Low clouds.6 mph93%29.77 "Hg15 mi
12:00 AM37 °FLight rain. Mostly cloudy.6 mph100%29.75 "Hg12 mi
11:00 PM
Thu, Jul 2
39 °FLight rain. Mostly cloudy.12 mph93%29.75 "Hg8 mi
10:00 PM37 °FLight rain. Mostly cloudy.6 mph100%29.74 "Hg8 mi
9:00 PM37 °FLight rain. Mostly cloudy.12 mph100%29.73 "Hg10 mi
8:00 PM37 °FLight rain. Mostly cloudy.6 mph93%29.73 "Hg8 mi
7:00 PM37 °FLight rain. Low clouds.12 mph93%29.72 "Hg12 mi
6:00 PM37 °FLight rain. Low clouds.12 mph93%29.70 "Hg15 mi
5:00 PM39 °FLow clouds.12 mph93%29.70 "Hg12 mi
Weather by CustomWeather, © 2015

See weather overviewHow to use our weather pages